0803100025,2008,01,01,00,0.005
0803100025,2008,01,01,01,0.004
0803100025,2008,01,01,02,0.005
0803100025,2008,01,01,03,0.018
0803100025,2008,01,01,04,0.014
0803100025,2008,01,01,05,0.012
0803100025,2008,01,01,06,0.01
0803100025,2008,01,01,07,0.011
0803100025,2008,01,01,08,0.015
0803100025,2008,01,01,09,0.018
0803100025,2008,01,01,10,0.018
0803100025,2008,01,01,11,0.024
0803100025,2008,01,01,12,0.031
0803100025,2008,01,01,13,0.031
0803100025,2008,01,01,14,0.028
0803100025,2008,01,01,15,0.02
0803100025,2008,01,01,16,0.006
0803100025,2008,01,01,17,0.004
0803100025,2008,01,01,18,0.002
0803100025,2008,01,01,19,0.002
0803100025,2008,01,01,20,0.006
0803100025,2008,01,01,21,0.001
0803100025,2008,01,01,22,0.001
0803100025,2008,01,01,23,0.001
0803100025,2008,01,02,00,0.002
0803100025,2008,01,02,01,0.002
0803100025,2008,01,02,02,0.003
0803100025,2008,01,02,03,0.001
0803100025,2008,01,02,04,0.001
0803100025,2008,01,02,05,0.001
0803100025,2008,01,02,06,0.002
0803100025,2008,01,02,07,0.002
0803100025,2008,01,02,08,0.002
0803100025,2008,01,02,10,0.004
0803100025,2008,01,02,11,0.005
0803100025,2008,01,02,12,0.008
0803100025,2008,01,02,13,0.007
0803100025,2008,01,02,14,0.005
0803100025,2008,01,02,15,0.004
0803100025,2008,01,02,16,0.003
0803100025,2008,01,02,17,0.002
0803100025,2008,01,02,18,0.003
0803100025,2008,01,02,19,0.003
0803100025,2008,01,02,20,0.003
0803100025,2008,01,02,21,0.003
0803100025,2008,01,02,22,0.003
0803100025,2008,01,02,23,0.003
0803100025,2008,01,03,00,0.005
0803100025,2008,01,03,01,0.008
0803100025,2008,01,03,02,0.012
0803100025,2008,01,03,03,0.01
0803100025,2008,01,03,04,0.009
0803100025,2008,01,03,05,0.006
0803100025,2008,01,03,06,0.005
0803100025,2008,01,03,07,0.004
0803100025,2008,01,03,08,0.003
0803100025,2008,01,03,09,0.004
0803100025,2008,01,03,10,0.004
0803100025,2008,01,03,11,0.005
0803100025,2008,01,03,12,0.003
0803100025,2008,01,03,13,0.004
0803100025,2008,01,03,14,0.002
0803100025,2008,01,03,15,0.002
0803100025,2008,01,03,16,0.002
0803100025,2008,01,03,17,0.002
0803100025,2008,01,03,18,0.001
0803100025,2008,01,03,19,0.001
0803100025,2008,01,03,20,0.001
0803100025,2008,01,03,21,0.002
0803100025,2008,01,03,22,0.005
0803100025,2008,01,03,23,0.007
0803100025,2008,01,04,00,0.01
0803100025,2008,01,04,01,0.013
0803100025,2008,01,04,02,0.003
0803100025,2008,01,04,03,0.001
0803100025,2008,01,04,04,0.007
0803100025,2008,01,04,05,0.001
0803100025,2008,01,04,06,0.002
0803100025,2008,01,04,07,0.001
0803100025,2008,01,04,08,0.002
0803100025,2008,01,04,09,0.003
0803100025,2008,01,04,10,0.002
0803100025,2008,01,04,11,0.004
0803100025,2008,01,04,12,0.011
0803100025,2008,01,04,13,0.018
0803100025,2008,01,04,14,0.011
0803100025,2008,01,04,15,0.012
0803100025,2008,01,04,16,0.017
0803100025,2008,01,04,17,0.014
0803100025,2008,01,04,18,0.004
0803100025,2008,01,04,19,0.003
0803100025,2008,01,04,20,0.001
0803100025,2008,01,04,21,0.001
0803100025,2008,01,04,22,0.001
0803100025,2008,01,04,23,0.002
0803100025,2008,01,05,00,0.006
0803100025,2008,01,05,01,0.002
0803100025,2008,01,05,02,0.003
0803100025,2008,01,05,03,0.001
0803100025,2008,01,05,04,0.002
0803100025,2008,01,05,05,0.001
0803100025,2008,01,05,06,0.003
0803100025,2008,01,05,07,0.001
0803100025,2008,01,05,08,0.008
0803100025,2008,01,05,09,0.014
0803100025,2008,01,05,10,0.023
0803100025,2008,01,05,11,0.021
0803100025,2008,01,05,12,0.021
0803100025,2008,01,05,13,0.02
0803100025,2008,01,05,14,0.018
0803100025,2008,01,05,15,0.019
0803100025,2008,01,05,16,0.009
0803100025,2008,01,05,17,0.007
0803100025,2008,01,05,18,0.011
0803100025,2008,01,05,19,0.017
0803100025,2008,01,05,20,0.01
0803100025,2008,01,05,21,0.015
0803100025,2008,01,05,22,0.014
0803100025,2008,01,05,23,0.009
0803100025,2008,01,06,00,0.008
0803100025,2008,01,06,01,0.017
0803100025,2008,01,06,02,0.016
0803100025,2008,01,06,03,0.015
0803100025,2008,01,06,04,0.018
0803100025,2008,01,06,05,0.006
0803100025,2008,01,06,06,0.006
0803100025,2008,01,06,07,0.024
0803100025,2008,01,06,08,0.027
0803100025,2008,01,06,09,0.031
0803100025,2008,01,06,10,0.028
0803100025,2008,01,06,11,0.029
0803100025,2008,01,06,12,0.024
0803100025,2008,01,06,13,0.022
0803100025,2008,01,06,14,0.017
0803100025,2008,01,06,15,0.022
0803100025,2008,01,06,16,0.011
0803100025,2008,01,06,17,0.009
0803100025,2008,01,06,18,0.002
0803100025,2008,01,06,19,0.001
0803100025,2008,01,06,20,0.001
0803100025,2008,01,06,21,0.001
0803100025,2008,01,06,22,0.001
0803100025,2008,01,06,23,0.002
0803100025,2008,01,07,00,0.001
0803100025,2008,01,07,01,0.003
0803100025,2008,01,07,02,0.001
0803100025,2008,01,07,03,0.002
0803100025,2008,01,07,04,0.003
0803100025,2008,01,07,05,0.001
0803100025,2008,01,07,06,0.001
0803100025,2008,01,07,07,0.003
0803100025,2008,01,07,08,0
0803100025,2008,01,07,09,0.003
0803100025,2008,01,07,10,0.005
0803100025,2008,01,07,11,0.009
0803100025,2008,01,07,12,0.01
0803100025,2008,01,07,13,0.011
0803100025,2008,01,07,14,0.019
0803100025,2008,01,07,15,0.019
0803100025,2008,01,07,16,0.014
0803100025,2008,01,07,17,0.013
0803100025,2008,01,07,18,0.018
0803100025,2008,01,07,19,0.011
0803100025,2008,01,07,20,0.012
0803100025,2008,01,07,21,0.015
0803100025,2008,01,07,22,0.016
0803100025,2008,01,07,23,0.014
0803100025,2008,01,08,00,0.018
0803100025,2008,01,08,01,0.011
0803100025,2008,01,08,02,0.017
0803100025,2008,01,08,03,0.024
0803100025,2008,01,08,04,0.021
0803100025,2008,01,08,05,0.019
0803100025,2008,01,08,06,0.013
0803100025,2008,01,08,07,0.003
0803100025,2008,01,08,08,0.006
0803100025,2008,01,08,09,0.012
0803100025,2008,01,08,10,0.018
0803100025,2008,01,08,11,0.02
0803100025,2008,01,08,12,0.025
0803100025,2008,01,08,13,0.026
0803100025,2008,01,08,14,0.025
0803100025,2008,01,08,15,0.018
0803100025,2008,01,08,16,0.01
0803100025,2008,01,08,17,0.002
0803100025,2008,01,08,18,0
0803100025,2008,01,08,19,0
0803100025,2008,01,08,20,0
0803100025,2008,01,08,21,0.003
0803100025,2008,01,08,22,0.002
0803100025,2008,01,08,23,0.002
0803100025,2008,01,09,00,0.005
0803100025,2008,01,09,01,0.012
0803100025,2008,01,09,02,0.012
0803100025,2008,01,09,03,0.011
0803100025,2008,01,09,04,0.006
0803100025,2008,01,09,05,0.003
0803100025,2008,01,09,06,0
0803100025,2008,01,09,07,0
0803100025,2008,01,09,08,0
0803100025,2008,01,09,10,0.003
0803100025,2008,01,09,11,0.003
0803100025,2008,01,09,12,0.005
0803100025,2008,01,09,13,0.011
0803100025,2008,01,09,14,0.01
0803100025,2008,01,09,15,0.006
0803100025,2008,01,09,16,0.002
0803100025,2008,01,09,17,0.001
0803100025,2008,01,09,18,0.001
0803100025,2008,01,09,19,0.001
0803100025,2008,01,09,20,0.001
0803100025,2008,01,09,21,0.001
0803100025,2008,01,09,22,0.001
0803100025,2008,01,09,23,0.001
0803100025,2008,01,10,00,0.002
0803100025,2008,01,10,01,0.001
0803100025,2008,01,10,02,0.001
0803100025,2008,01,10,03,0.001
0803100025,2008,01,10,04,0.001
0803100025,2008,01,10,05,0.002
0803100025,2008,01,10,06,0.001
0803100025,2008,01,10,07,0.001
0803100025,2008,01,10,08,0.002
0803100025,2008,01,10,09,0.006
0803100025,2008,01,10,10,0.009
0803100025,2008,01,10,11,0.014
0803100025,2008,01,10,12,0.021
0803100025,2008,01,10,13,0.026
0803100025,2008,01,10,14,0.025
0803100025,2008,01,10,15,0.018
0803100025,2008,01,10,16,0.018
0803100025,2008,01,10,17,0.013
0803100025,2008,01,10,18,0.016
0803100025,2008,01,10,19,0.018
0803100025,2008,01,10,20,0.019
0803100025,2008,01,10,21,0.015
0803100025,2008,01,10,22,0.02
0803100025,2008,01,10,23,0.002
0803100025,2008,01,11,00,0.002
0803100025,2008,01,11,01,0.005
0803100025,2008,01,11,02,0
0803100025,2008,01,11,03,0.001
0803100025,2008,01,11,04,0.004
0803100025,2008,01,11,05,0.005
0803100025,2008,01,11,06,0.001
0803100025,2008,01,11,07,0.001
0803100025,2008,01,11,08,0.011
0803100025,2008,01,11,09,0.021
0803100025,2008,01,11,10,0.023
0803100025,2008,01,11,11,0.026
0803100025,2008,01,11,12,0.025
0803100025,2008,01,11,13,0.024
0803100025,2008,01,11,14,0.023
0803100025,2008,01,11,15,0.02
0803100025,2008,01,11,16,0.008
0803100025,2008,01,11,17,0.006
0803100025,2008,01,11,18,0.014
0803100025,2008,01,11,19,0.012
0803100025,2008,01,11,20,0.005
0803100025,2008,01,11,21,0.004
0803100025,2008,01,11,22,0.002
0803100025,2008,01,11,23,0.003
0803100025,2008,01,12,00,0.01
0803100025,2008,01,12,01,0.009
0803100025,2008,01,12,02,0.019
0803100025,2008,01,12,03,0.029
0803100025,2008,01,12,04,0.014
0803100025,2008,01,12,05,0.007
0803100025,2008,01,12,06,0.002
0803100025,2008,01,12,07,0.004
0803100025,2008,01,12,08,0.005
0803100025,2008,01,12,09,0.005
0803100025,2008,01,12,10,0.014
0803100025,2008,01,12,11,0.025
0803100025,2008,01,12,12,0.029
0803100025,2008,01,12,13,0.03
0803100025,2008,01,12,14,0.031
0803100025,2008,01,12,15,0.027
0803100025,2008,01,12,16,0.018
0803100025,2008,01,12,17,0.013
0803100025,2008,01,12,18,0.007
0803100025,2008,01,12,19,0.009
0803100025,2008,01,12,20,0.006
0803100025,2008,01,12,21,0.008
0803100025,2008,01,12,22,0.007
0803100025,2008,01,12,23,0.008
0803100025,2008,01,13,00,0.002
0803100025,2008,01,13,01,0.004
0803100025,2008,01,13,02,0.005
0803100025,2008,01,13,03,0.011
0803100025,2008,01,13,04,0.005
0803100025,2008,01,13,05,0
0803100025,2008,01,13,06,0.002
0803100025,2008,01,13,07,0.002
0803100025,2008,01,13,08,0.005
0803100025,2008,01,13,09,0.01
0803100025,2008,01,13,10,0.015
0803100025,2008,01,13,11,0.027
0803100025,2008,01,13,12,0.032
0803100025,2008,01,13,13,0.032
0803100025,2008,01,13,14,0.031
0803100025,2008,01,13,15,0.03
0803100025,2008,01,13,16,0.023
0803100025,2008,01,13,17,0.006
0803100025,2008,01,13,18,0.004
0803100025,2008,01,13,19,0.006
0803100025,2008,01,13,20,0.003
0803100025,2008,01,13,21,0.011
0803100025,2008,01,13,22,0.009
0803100025,2008,01,13,23,0.003
0803100025,2008,01,14,00,0.01
0803100025,2008,01,14,01,0.011
0803100025,2008,01,14,02,0.01
0803100025,2008,01,14,03,0.005
0803100025,2008,01,14,04,0.005
0803100025,2008,01,14,05,0.004
0803100025,2008,01,14,06,0.008
0803100025,2008,01,14,07,0.007
0803100025,2008,01,14,08,0.009
0803100025,2008,01,14,09,0.009
0803100025,2008,01,14,10,0.017
0803100025,2008,01,14,11,0.01
0803100025,2008,01,14,12,0.014
0803100025,2008,01,14,13,0.022
0803100025,2008,01,14,14,0.02
0803100025,2008,01,14,15,0.014
0803100025,2008,01,14,16,0.005
0803100025,2008,01,14,17,0.001
0803100025,2008,01,14,18,0
0803100025,2008,01,14,19,0.003
0803100025,2008,01,14,20,0.006
0803100025,2008,01,14,21,0.005
0803100025,2008,01,14,22,0.003
0803100025,2008,01,14,23,0.009
0803100025,2008,01,15,00,0.004
0803100025,2008,01,15,01,0.004
0803100025,2008,01,15,02,0.014
0803100025,2008,01,15,03,0.015
0803100025,2008,01,15,04,0.01
0803100025,2008,01,15,05,0.004
0803100025,2008,01,15,06,0.003
0803100025,2008,01,15,07,0
0803100025,2008,01,15,08,0
0803100025,2008,01,15,09,0
0803100025,2008,01,15,10,0.003
0803100025,2008,01,15,11,0.004
0803100025,2008,01,15,12,0.004
0803100025,2008,01,15,13,0.004
0803100025,2008,01,15,14,0.003
0803100025,2008,01,15,15,0.003
0803100025,2008,01,15,16,0.003
0803100025,2008,01,15,17,0.003
0803100025,2008,01,15,18,0.002
0803100025,2008,01,15,19,0.002
0803100025,2008,01,15,20,0.002
0803100025,2008,01,15,21,0.002
0803100025,2008,01,15,22,0
0803100025,2008,01,15,23,0
0803100025,2008,01,16,00,0
0803100025,2008,01,16,01,0
0803100025,2008,01,16,02,0
0803100025,2008,01,16,03,0
0803100025,2008,01,16,04,0
0803100025,2008,01,16,05,0
0803100025,2008,01,16,06,0
0803100025,2008,01,16,07,0.006
0803100025,2008,01,16,08,0.006
0803100025,2008,01,16,09,0.005
0803100025,2008,01,16,10,0.005
0803100025,2008,01,16,11,0.005
0803100025,2008,01,16,12,0.005
0803100025,2008,01,16,13,0.005
0803100025,2008,01,16,14,0.005
0803100025,2008,01,16,15,0.005
0803100025,2008,01,16,16,0.005
0803100025,2008,01,16,17,0.005
0803100025,2008,01,16,18,0.005
0803100025,2008,01,16,19,0.006
0803100025,2008,01,16,20,0.006
0803100025,2008,01,19,00,0.002
0803100025,2008,01,19,01,0.004
0803100025,2008,01,19,02,0.006
0803100025,2008,01,19,03,0.013
0803100025,2008,01,19,04,0.017
0803100025,2008,01,19,05,0.021
0803100025,2008,01,19,06,0.009
0803100025,2008,01,19,07,0.011
0803100025,2008,01,19,08,0.005
0803100025,2008,01,19,09,0.01
0803100025,2008,01,19,10,0.009
0803100025,2008,01,19,11,0.013
0803100025,2008,01,19,12,0.015
0803100025,2008,01,19,13,0.018
0803100025,2008,01,19,14,0.018
0803100025,2008,01,19,15,0.023
0803100025,2008,01,19,16,0.006
0803100025,2008,01,19,17,0.001
0803100025,2008,01,19,18,0
0803100025,2008,01,19,19,0
0803100025,2008,01,19,20,0
0803100025,2008,01,19,21,0.004
0803100025,2008,01,19,22,0.005
0803100025,2008,01,19,23,0.003
0803100025,2008,01,20,00,0.002
0803100025,2008,01,20,01,0
0803100025,2008,01,20,02,0
0803100025,2008,01,20,03,0
0803100025,2008,01,20,04,0
0803100025,2008,01,20,05,0
0803100025,2008,01,20,06,0
0803100025,2008,01,20,07,0.001
0803100025,2008,01,20,08,0.001
0803100025,2008,01,20,09,0.011
0803100025,2008,01,20,10,0.018
0803100025,2008,01,20,11,0.017
0803100025,2008,01,20,12,0.014
0803100025,2008,01,20,13,0.012
0803100025,2008,01,20,14,0.013
0803100025,2008,01,20,15,0.017
0803100025,2008,01,20,16,0.016
0803100025,2008,01,20,17,0.01
0803100025,2008,01,20,18,0.01
0803100025,2008,01,20,19,0.01
0803100025,2008,01,20,20,0.01
0803100025,2008,01,20,21,0.009
0803100025,2008,01,20,22,0.007
0803100025,2008,01,20,23,0.007
0803100025,2008,01,21,00,0.008
0803100025,2008,01,21,01,0.007
0803100025,2008,01,21,02,0.009
0803100025,2008,01,21,03,0.008
0803100025,2008,01,21,04,0.008
0803100025,2008,01,21,05,0.007
0803100025,2008,01,21,06,0.005
0803100025,2008,01,21,07,0.005
0803100025,2008,01,21,08,0.005
0803100025,2008,01,21,09,0.009
0803100025,2008,01,21,10,0.012
0803100025,2008,01,21,11,0.012
0803100025,2008,01,21,12,0.011
0803100025,2008,01,21,13,0.009
0803100025,2008,01,21,14,0.01
0803100025,2008,01,21,15,0.008
0803100025,2008,01,21,16,0.008
0803100025,2008,01,21,17,0.01
0803100025,2008,01,21,18,0.012
0803100025,2008,01,21,19,0.013
0803100025,2008,01,21,20,0.011
0803100025,2008,01,21,21,0.008
0803100025,2008,01,21,22,0.005
0803100025,2008,01,21,23,0.01
0803100025,2008,01,22,00,0.004
0803100025,2008,01,22,01,0.004
0803100025,2008,01,22,02,0
0803100025,2008,01,22,03,0
0803100025,2008,01,22,04,0
0803100025,2008,01,22,05,0
0803100025,2008,01,22,06,0
0803100025,2008,01,22,07,0.001
0803100025,2008,01,22,08,0.001
0803100025,2008,01,22,09,0.003
0803100025,2008,01,22,10,0.003
0803100025,2008,01,22,11,0.004
0803100025,2008,01,22,12,0.003
0803100025,2008,01,22,13,0.003
0803100025,2008,01,22,14,0.006
0803100025,2008,01,22,15,0.014
0803100025,2008,01,22,16,0.013
0803100025,2008,01,22,17,0.003
0803100025,2008,01,22,18,0.002
0803100025,2008,01,22,19,0.002
0803100025,2008,01,22,20,0.003
0803100025,2008,01,22,21,0.011
0803100025,2008,01,22,22,0
0803100025,2008,01,22,23,0
0803100025,2008,01,23,00,0
0803100025,2008,01,23,01,0
0803100025,2008,01,23,02,0
0803100025,2008,01,23,03,0
0803100025,2008,01,23,04,0
0803100025,2008,01,23,05,0
0803100025,2008,01,23,06,0
0803100025,2008,01,23,07,0
0803100025,2008,01,23,08,0.008
0803100025,2008,01,23,09,0.009
0803100025,2008,01,23,19,0.001
0803100025,2008,01,23,20,0
0803100025,2008,01,23,21,0
0803100025,2008,01,23,22,0.001
0803100025,2008,01,23,23,0
0803100025,2008,01,24,00,0.002
0803100025,2008,01,24,01,0
0803100025,2008,01,24,02,0
0803100025,2008,01,24,03,0
0803100025,2008,01,24,04,0
0803100025,2008,01,24,05,0.001
0803100025,2008,01,24,06,0
0803100025,2008,01,24,07,0
0803100025,2008,01,24,08,0.001
0803100025,2008,01,24,09,0.001
0803100025,2008,01,24,10,0.002
0803100025,2008,01,24,11,0.002
0803100025,2008,01,24,12,0.001
0803100025,2008,01,24,13,0.003
0803100025,2008,01,24,14,0.003
0803100025,2008,01,24,15,0.003
0803100025,2008,01,24,16,0.001
0803100025,2008,01,24,17,0
0803100025,2008,01,24,18,0
0803100025,2008,01,24,19,0
0803100025,2008,01,24,20,0
0803100025,2008,01,24,21,0
0803100025,2008,01,24,22,0
0803100025,2008,01,24,23,0
0803100025,2008,01,25,00,0
0803100025,2008,01,25,01,0
0803100025,2008,01,25,02,0
0803100025,2008,01,25,03,0
0803100025,2008,01,25,04,0
0803100025,2008,01,25,05,0
0803100025,2008,01,25,06,0
0803100025,2008,01,25,07,0
0803100025,2008,01,25,08,0.005
0803100025,2008,01,25,09,0.019
0803100025,2008,01,25,10,0.024
0803100025,2008,01,25,11,0.026
0803100025,2008,01,25,12,0.028
0803100025,2008,01,25,13,0.03
0803100025,2008,01,25,14,0.022
0803100025,2008,01,25,15,0.027
0803100025,2008,01,25,16,0.023
0803100025,2008,01,25,17,0.018
0803100025,2008,01,25,18,0.013
0803100025,2008,01,25,19,0.021
0803100025,2008,01,25,20,0.024
0803100025,2008,01,25,21,0.023
0803100025,2008,01,25,22,0.027
0803100025,2008,01,25,23,0.019
0803100025,2008,01,26,00,0.027
0803100025,2008,01,26,01,0.032
0803100025,2008,01,26,02,0.022
0803100025,2008,01,26,03,0.025
0803100025,2008,01,26,04,0.027
0803100025,2008,01,26,05,0.023
0803100025,2008,01,26,06,0.013
0803100025,2008,01,26,07,0.014
0803100025,2008,01,26,08,0.014
0803100025,2008,01,26,09,0.019
0803100025,2008,01,26,10,0.023
0803100025,2008,01,26,11,0.025
0803100025,2008,01,26,12,0.026
0803100025,2008,01,26,13,0.028
0803100025,2008,01,26,14,0.026
0803100025,2008,01,26,15,0.026
0803100025,2008,01,26,16,0.025
0803100025,2008,01,26,17,0.009
0803100025,2008,01,26,18,0.004
0803100025,2008,01,26,19,0
0803100025,2008,01,26,20,0.002
0803100025,2008,01,26,21,0.006
0803100025,2008,01,26,22,0.008
0803100025,2008,01,26,23,0.011
0803100025,2008,01,27,00,0.018
0803100025,2008,01,27,01,0.025
0803100025,2008,01,27,02,0.018
0803100025,2008,01,27,03,0.024
0803100025,2008,01,27,04,0.031
0803100025,2008,01,27,05,0.029
0803100025,2008,01,27,06,0.028
0803100025,2008,01,27,07,0.027
0803100025,2008,01,27,08,0.021
0803100025,2008,01,27,09,0.022
0803100025,2008,01,27,10,0.018
0803100025,2008,01,27,11,0.027
0803100025,2008,01,27,12,0.03
0803100025,2008,01,27,13,0.03
0803100025,2008,01,27,14,0.025
0803100025,2008,01,27,15,0.019
0803100025,2008,01,27,16,0.013
0803100025,2008,01,27,17,0.007
0803100025,2008,01,27,18,0.014
0803100025,2008,01,27,19,0.012
0803100025,2008,01,27,20,0.017
0803100025,2008,01,27,21,0.016
0803100025,2008,01,27,22,0.015
0803100025,2008,01,27,23,0.021
0803100025,2008,01,28,00,0.019
0803100025,2008,01,28,01,0.024
0803100025,2008,01,28,02,0.018
0803100025,2008,01,28,03,0.01
0803100025,2008,01,28,04,0.003
0803100025,2008,01,28,05,0.001
0803100025,2008,01,28,06,0.008
0803100025,2008,01,28,07,0.019
0803100025,2008,01,28,08,0.025
0803100025,2008,01,28,09,0.027
0803100025,2008,01,28,10,0.029
0803100025,2008,01,28,11,0.03
0803100025,2008,01,28,12,0.038
0803100025,2008,01,28,13,0.039
0803100025,2008,01,28,14,0.033
0803100025,2008,01,28,15,0.023
0803100025,2008,01,28,16,0.018
0803100025,2008,01,28,17,0.016
0803100025,2008,01,28,18,0.023
0803100025,2008,01,28,19,0.026
0803100025,2008,01,28,20,0.022
0803100025,2008,01,28,21,0.029
0803100025,2008,01,28,22,0.028
0803100025,2008,01,28,23,0.027
0803100025,2008,01,29,00,0.029
0803100025,2008,01,29,01,0.032
0803100025,2008,01,29,02,0.033
0803100025,2008,01,29,03,0.027
0803100025,2008,01,29,04,0.026
0803100025,2008,01,29,05,0.021
0803100025,2008,01,29,06,0.023
0803100025,2008,01,29,07,0.02
0803100025,2008,01,29,08,0.023
0803100025,2008,01,29,09,0.025
0803100025,2008,01,29,10,0.028
0803100025,2008,01,29,11,0.029
0803100025,2008,01,29,12,0.029
0803100025,2008,01,29,13,0.029
0803100025,2008,01,29,14,0.023
0803100025,2008,01,29,15,0.034
0803100025,2008,01,29,16,0.004
0803100025,2008,01,29,17,0
